Regional Weather Roundup
Issued by NWS Northern Indiana

Home | Current Version | Previous Version | Text Only | Print | Product List | Glossary Off
Versions: 1 2 3 4 5 6 7 8 9 10 11 12 13 14 15 16 17 18 19 20 21 22 23 24 25 26 27 28 29 30 31 32 33 34 35 36 37 38 39 40 41 42 43 44 45 46 47 48 49 50

000
ASUS43 KIWX 290410
RWRIWX

KIWX WEATHER ROUNDUP
NATIONAL WEATHER SERVICE NORTHERN INDIANA
1100 PM EST FRI NOV 28 2014

NOTE: "FAIR" INDICATES FEW OR NO CLOUDS BELOW 12,000 FEET WITH NO
SIGNIFICANT WEATHER AND/OR OBSTRUCTIONS TO VISIBILITY.

* THESE STATIONS ARE NOT UNDER NWS QUALITY CONTROL. THEY ALSO MAY NOT
  REPORT WEATHER SUCH AS PRECIPITATION OR FOG.

INZ001>027-290500-
NORTHERN INDIANA

CITY           SKY/WX    TMP DP  RH WIND       PRES   REMARKS
GARY*          MOCLDY    35  27  71 S7        29.94F WCI  29
VALPARAISO     CLOUDY    31  23  72 SE7       29.95F WCI  24
MICHIGAN CITY* CLOUDY    32  21  64 S8        29.98S WCI  25
LAPORTE*       CLOUDY    33  26  75 S7        29.97F WCI  27
KNOX*          CLOUDY    32  24  72 S13       29.96S WCI  22
SOUTH BEND     CLOUDY    32  23  69 SE7       30.01R WCI  26
GOSHEN         CLOUDY    31  21  66 S10       30.00S WCI  22
MONTICELLO*    MOCLDY    32  26  77 SE7       29.98F WCI  26
LOGANSPORT*    CLOUDY    32  23  69 S10G17    29.99F WCI  24
ROCHESTER*     CLOUDY    34  27  75 S12G21    30.00S WCI  25
WARSAW*        CLOUDY    32  21  64 S8        29.99F WCI  25
ANGOLA*        PTCLDY    28  19  69 S7        30.01F WCI  21
FORT WAYNE     CLOUDY    31  21  66 S14       30.02F WCI  21
HUNTINGTON*    CLOUDY    31  21  65 S9        30.01F WCI  23
PERU/GRISSOM   CLOUDY    31  26  80 S14       29.99F WCI  21
MARION*          N/A     31  21  66 S13       30.01F WCI  21

$$
INZ028>050-290500-
CENTRAL INDIANA

CITY           SKY/WX    TMP DP  RH WIND       PRES   REMARKS
LAFAYETTE      PTCLDY    31  25  78 SE7       29.98F WCI  24
KOKOMO*        CLOUDY    32  21  64 S15       30.01F WCI  22
MUNCIE*        CLOUDY    32  19  58 S10       30.03F WCI  24
INDIANAPOLIS   CLOUDY    32  22  66 SE9       30.01F WCI  24

$$
MIZ043>046-050>051-056>058-064>065-071>073-077>080-290500-
SOUTHWEST LOWER MICHIGAN

CITY           SKY/WX    TMP DP  RH WIND       PRES   REMARKS
BATTLE CREEK   FLURRIES  31  20  63 S10       30.01S WCI  22
BENTON HARBOR  CLOUDY    30  22  72 S13       29.96F WCI  20
COLDWATER*     CLOUDY    31  22  66 S7        30.01S WCI  25
HILLSDALE*     CLOUDY    28  22  81 S7        30.02S WCI  20
HOLLAND        CLOUDY    30  22  72 SE14      29.96F WCI  19
GRAND RAPIDS   FLURRIES  28  21  75 SE8       30.00F WCI  20
KALAMAZOO      FLURRIES  30  20  66 S10       30.00F WCI  21
STURGIS*       CLOUDY    30  21  69 S10       30.00S WCI  21
THREE RIVERS*  CLOUDY    31  22  71 S9        30.01F WCI  23

$$
OHZ001>008-015>018-024>025-290500-
NORTHWEST OHIO

CITY           SKY/WX    TMP DP  RH WIND       PRES   REMARKS
WAUSEON*       FAIR      28  23  80 S7        30.05F WCI  21
DEFIANCE       CLOUDY    31  20  63 S10       30.06F WCI  22
FINDLAY        CLOUDY    31  22  69 S9        30.07F WCI  23
TOLEDO EXPRESS MOCLDY    29  22  75 S6        30.07F WCI  23
TOLEDO METCALF CLOUDY    31  22  69 S10       30.09F WCI  22
LIMA           CLOUDY    32  20  61 S14       30.07F WCI  22

$$
AND FOR LAKE MICHIGAN COASTAL AND OPEN LAKE BUOY OBSERVATIONS

STATION/POSITION TEMP    WIND        PRES    VSBY  WAVE
                 AIR SEA DIR/SP/G                  HT/PER
                 (F)     (DEG/KT/KT) (MB)    (MI)  (FT/S)
CALUMET HARBOR    34     160/  7/ 10 1012.5F
MICHIGAN CITY     32     140/ 14/ 19   N/A
SAINT JOSEPH      32     150/  4/ 10 1014.6F
SOUTH LAKE BUOY   36 42  180/ 21/ 25 1013.7F         6/ 7

$$
&&


USA.gov is the U.S. government's official web portal to all federal, state and local government web resources and services.